Home   Weather   Barnstable   Past weeks

Flag for USA Past Weather in Barnstable, Massachusetts, USA — Yesterday and Last 2 Weeks

Now
60 °F

Overcast.


Feels Like: 60 °F
Forecast: 58 / 60 °F
Wind: 16 mph from Northeast

Location: Barnstable Municipal-Boardman Airport

Current Time: Sep 30, 2016 at 2:46:47 PM

Latest Report: Sep 30, 2016 at 1:56 PM


Visibility: 10 mi

Pressure: 30.36 "Hg

Humidity: 80%

Dew Point: 54 °F

Location of BarnstableLocation

Past Weather in Barnstable — Graph

°F

Barnstable Temperature Yesterday

Maximum temperature yesterday: 61 °F (at 12:56 PM)
Minimum temperature yesterday: 57 °F (at 7:56 PM)
Average temperature yesterday: 59 °F

High & Low Weather Summary for the Past Weeks

 TemperatureHumidityPressure
High80 °F (Sep 18, 12:56 PM)100% (Sep 21, 3:56 AM)30.45 "Hg (Sep 21, 3:56 AM)
Low41 °F (Sep 26, 6:56 AM)40% (Sep 22, 12:56 PM)29.88 "Hg (Sep 27, 9:56 AM)
Average64 °F77%30.14 "Hg
* Reported Sep 15 1:56 PM — Sep 30 1:56 PM, Barnstable, Weather by CustomWeather, © 2016

Note: Actual official high and low records may vary slightly from our data, if they occured in-between our weather recording intervals... More about our weather records

Advertising

Barnstable Weather History for the Previous 24 Hours

Scroll right to see more
 ConditionsComfort  
Time TempWeatherWind HumidityBarometerVisibility
1:56 PM
Fri, Sep 30
60 °FOvercast.16 mph80%30.36 "Hg10 mi
12:56 PM61 °FMore clouds than sun.12 mph78%30.37 "Hg10 mi
11:56 AM62 °FMostly cloudy.13 mph73%30.38 "Hg10 mi
10:56 AM62 °FBroken clouds.15 mph73%30.38 "Hg10 mi
9:56 AM61 °FPartly sunny.12 mph75%30.39 "Hg10 mi
8:56 AM60 °FBroken clouds.13 mph78%30.39 "Hg10 mi
7:56 AM60 °FScattered clouds.13 mph78%30.39 "Hg10 mi
6:56 AM59 °FSunny.13 mph81%30.39 "Hg10 mi
5:56 AM59 °FPassing clouds.16 mph84%30.37 "Hg10 mi
4:56 AM59 °FMostly cloudy.12 mph84%30.39 "Hg10 mi
3:56 AM57 °FPassing clouds.8 mph83%30.40 "Hg10 mi
2:56 AM57 °FClear.7 mph81%30.41 "Hg10 mi
1:56 AM58 °FPassing clouds.8 mph78%30.41 "Hg10 mi
12:56 AM58 °FOvercast.12 mph78%30.41 "Hg10 mi
11:56 PM
Thu, Sep 29
58 °FOvercast.8 mph78%30.45 "Hg10 mi
10:56 PM58 °FOvercast.13 mph75%30.45 "Hg10 mi
9:56 PM58 °FOvercast.13 mph78%30.45 "Hg10 mi
8:56 PM58 °FOvercast.8 mph78%30.45 "Hg10 mi
7:56 PM57 °FOvercast.12 mph78%30.44 "Hg10 mi
6:56 PM58 °FOvercast.12 mph75%30.43 "Hg10 mi
5:56 PM59 °FOvercast.15 mph72%30.42 "Hg10 mi
4:56 PM60 °FOvercast.18 mph72%30.41 "Hg10 mi
3:56 PM61 °FOvercast.13 mph72%30.42 "Hg10 mi
2:56 PM61 °FOvercast.15 mph72%30.42 "Hg10 mi
Weather by CustomWeather, © 2016

See weather overviewHow to use our weather pages